Location: Donzy-le-Pr�
(47.3659°N, 3.1107°E)
Time: 07:14:05
(UTC+00:00)

Okean 1-7 - Pass Details

Date: 03 March 2021
Orbit: 589 x 619 km, 82.5° (Epoch: 14 April)

Event Time Altitude Azimuth Distance (km) Brightness Sun altitude
Rises 19:34:37 0° 346° (NNW) 2,898 6.9 -20.8°
Reaches altitude 10° 19:36:53 10° 342° (NNW) 1,984 6.0 -21.2°
Maximum altitude 19:41:10 54° 266° (W) 745 3.7 -21.9°
Drops below altitude 10° 19:45:23 10° 189° (S) 1,950 5.5 -22.6°
Enters shadow 19:45:51 - 188° (S) 2,139 5.7 -22.6°
